Regional Weather Roundup
Issued by NWS Upton, NY

Current Version | Previous Version | Text Only | Print | Product List | Glossary Off
Versions: 1 2 3 4 5 6 7 8 9 10 11 12 13 14 15 16 17 18 19 20 21 22 23 24 25 26 27 28 29 30 31 32 33 34 35 36 37 38 39 40 41 42 43 44 45 46 47 48 49 50

000
ASUS41 KOKX 020604
RWROKX

REGIONAL WEATHER ROUNDUP
NATIONAL WEATHER SERVICE NEW YORK NY
200 AM EDT SUN AUG 02 2015

NOTE: "FAIR" INDICATES FEW OR NO CLOUDS BELOW 12,000 FEET WITH NO
SIGNIFICANT WEATHER AND/OR OBSTRUCTIONS TO VISIBILITY.

NYZ071-072-176-178-NJZ106-104-020700-
NEW YORK CITY METRO AREA


CITY           SKY/WX    TMP DP  RH WIND       PRES   REMARKS
CENTRAL PARK   PTCLDY    76  55  48 W3        29.90R
LAGUARDIA APRT PTCLDY    77  58  51 NW3       29.86R
KENNEDY INTL   PTCLDY    78  61  55 W6        29.87R
NEWARK/LIBERTY PTCLDY    75  58  55 W3        29.87R
BRNX BOT. GARD   N/A     73  54  49 N3        29.86F
TETERBORO      PTCLDY    70  57  63 CALM      29.86R
$$

NYZ177-179-078>081-020700-
LONG ISLAND NEW YORK

CITY           SKY/WX    TMP DP  RH WIND       PRES   REMARKS
FARMINGDALE    PTCLDY    75  57  53 N3        29.86S
ISLIP          CLEAR     69  57  65 CALM      29.84S
SHIRLEY        CLEAR     66  58  75 CALM      29.86S
WESTHAMPTON    CLEAR     61  57  87 CALM      29.87S
MONTAUK POINT    N/A     74  64  71 W5        29.86S
$$

NYZ052-065-067-020700-
HUDSON VALLEY

CITY           SKY/WX    TMP DP  RH WIND       PRES   REMARKS
WHITE PLAINS   MOCLDY    68  58  70 NW6       29.87R
NEWBURGH       NOT AVBL
MONTGOMERY     CLEAR     62  58  86 CALM      29.88S
POUGHKEEPSIE   CLEAR     61  57  87 CALM      29.86S
ALBANY         CLEAR     63  54  72 SW3       29.86S
$$

NJZ001-105-106-008-010-013-015-019>022-104-020700-
NEW JERSEY

CITY           SKY/WX    TMP DP  RH WIND       PRES   REMARKS
NEWARK/LIBERTY PTCLDY    75  58  55 W3        29.87R
TETERBORO      PTCLDY    70  57  63 CALM      29.86R
CALDWELL       PTCLDY    67  57  70 CALM      29.88R
MORRISTOWN     CLEAR     63  57  82 CALM      29.88R
SOMERVILLE     CLEAR     62  59  90 CALM      29.86S
SUSSEX         CLEAR     58  55  90 CALM      29.89R
ANDOVER          N/A     60  59  96 CALM      29.90S
TRENTON        CLEAR     69  60  73 CALM      29.88R
MILLVILLE      CLEAR     69  66  90 CALM      29.89S
ATLANTIC CITY  CLEAR     73  64  73 SW5       29.89R
WRIGHTSTOWN    NOT AVBL
TOMS RIVER       N/A     64  61  88 CALM      29.88S
BELMAR         CLEAR     70  55  60 W5        29.88S
$$

PAZ047>061-062-071-020700-
EASTERN PENNSYLVANIA

CITY           SKY/WX    TMP DP  RH WIND       PRES   REMARKS
PHILADELPHIA   PTCLDY    74  62  66 W3        29.89S
ALLENTOWN      CLEAR     64  58  80 SW6       29.89S
SCRANTON       CLEAR     61  56  83 E5        29.91S
$$

CTZ002-004>006-009-010-012-RIZ004-006-007-MAZ004-011-015-020700-
SOUTHERN NEW ENGLAND
 IN CT

CITY           SKY/WX    TMP DP  RH WIND       PRES   REMARKS
BRADLEY INTL   CLEAR     65  57  75 CALM      29.86R
HARTFORD       CLEAR     68  66  93 CALM      29.86R
DANBURY        CLEAR     61  56  83 SW3       29.89R
WTRBRY/OXFORD  CLEAR     64  54  68 CALM      29.90R
BRIDGEPORT     CLEAR     72  59  63 N3        29.86R
MERIDEN        CLEAR     63  60  90 CALM      29.86S
NEW HAVEN      CLEAR     68  59  73 N5        29.86R
CHESTER        FAIR      70  57  64 NW6       29.87S
GROTON         PTCLDY    65  62  90 N3        29.85R
WILLIMANTIC    CLEAR     64  61  90 CALM      29.86S

 IN RI

CITY           SKY/WX    TMP DP  RH WIND       PRES   REMARKS
PROVIDENCE     CLEAR     69  63  81 W6        29.84S
BLOCK ISLAND     N/A     70  66  88 NW7       29.85R
WESTERLY       PTCLDY    65  63  93 CALM      29.85R

 IN MA

CITY           SKY/WX    TMP DP  RH WIND       PRES   REMARKS
BOSTON         PTCLDY    73  55  53 W10       29.82S
WORCESTER      CLEAR     62  55  77 W10       29.88R
WESTFIELD      CLEAR     59  57  93 CALM      29.86S
PROVINCETOWN   CLEAR     70  61  73 W8        29.83R
NANTUCKET      PTCLDY    73  71  93 W9        29.82S
$$

ANZ330-335-338-340-345-350-353-355-020700-
COASTAL MARINE OBSERVATIONS


STATION/POSITION TIME  SKY/WX   TEMP    WIND        PRES    VSBY  WAVE
                                AIR SEA DIR/SP/G                  HT/PER
                 (UTC)          (F)     (DEG/KT/KT) (MB)    (MI)  (FT/S)
NY HARB ENTRANCE 0450            77 77  260/  8/ 10 1010.8          3/ 8
4S FIRE IS       NOT AVBL
20S FIRE ISLAND  0450            77 75  240/  6/  6 1010.7          4/ 9
GREAT SOUTH BAY  0500            77 80  310/  4/  6   N/A
23SW MTP         0550            76 74  280/ 10/ 10 1010.3          4/ 6
HUDSON CANYON    NOT AVBL
KINGS POINT      0500            74 70   20/  2/  3 1010.3
EXECUTION ROCKS  0500            73      CALM  /  2   N/A
CENTRAL LI SOUND NOT AVBL
EASTERN LI SOUND 0500            70 68  280/  4/  6   N/A
ROBBINS REEF     0500            78     290/  6/  7 1010.1
$$


>>>>>>>>>>>>>>>>>>>>>>>>>>>> KEY <<<<<<<<<<<<<<<<<<<<<<<<<<<
>                                                          <
>     SKY/WX - SKY CONDITION/PRESENT WEATHER               <
>     TMP    - TEMPERATURE IN FAHRENHEIT                   <
>     DP     - DEWPOINT IN FAHRENHEIT                      <
>     RH     - RELATIVE HUMIDITY IN PERCENT                <
>     WIND   - DIRECTION AND SPEED IN MPH                  <
>     PRES   - MEAN SEA LEVEL PRESSURE IN INCHES OF HG     <
>     WCI    - WIND CHILL INDEX                            <
>     VSB    - VISIBILITY IN MILES                         <
>     HX     - HEAT INDEX                                  <
>     TC     - TEMPERATURE IN CELSIUS                      <
>     VRB    - VARIABLE WIND DIRECTION                     <
>                                                          <
>>>>>>>>>>>>>>>>>>>>>>>>>>>> KEY <<<<<<<<<<<<<<<<<<<<<<<<<<<





USA.gov is the U.S. government's official web portal to all federal, state and local government web resources and services.